Wetbulb
57.92 57.95 58.02 57.97 57.96 57.88 57.77 57.77 57.92 58.38 58.91 59.64 60.28 60.61 60.74 61.60 60.34 52.90 45.02 56.11 57.67 66.91 64.63 51.64 50.80 49.90 50.82 49.39 52.75 49.86 41.90 38.70 40.88 42.46 44.70 48.21 46.28 47.29 47.26 45.73 46.29 46.96 46.67 48.16 53.04
57.72 57.71 57.69 57.68 57.60 57.38 57.07 57.21 57.66 58.27 59.14 60.00 60.75 60.98 61.13 60.85 52.80 50.44 58.07 66.30 66.69 65.93 50.96 49.18 47.53 48.12 45.14 45.12 50.07 46.40 40.26 41.62 46.27 46.38 44.13 48.46 47.83 47.56 45.08 44.31 44.59 46.70 48.78 50.73 52.53
57.39 57.51 57.36 57.29 57.17 57.00 56.70 56.81 57.54 58.43 59.42 60.24 60.63 60.72 61.00 59.36 48.48 46.67 66.38 67.76 66.06 59.88 51.23 50.00 47.92 46.67 43.46 43.75 44.04 45.42 42.22 46.52 48.19 48.23 48.54 48.02 47.76 49.18 44.89 43.07 45.70 46.34 48.10 49.78 50.88
57.04 57.01 56.91 56.87 56.78 56.70 56.48 56.75 57.83 58.87 59.73 60.08 60.26 59.85 60.41 53.20 38.17 48.68 67.16 66.00 65.58 53.54 49.51 47.23 45.64 42.46 40.54 39.94 42.26 38.09 44.02 46.44 47.50 46.31 45.35 46.94 48.39 46.57 46.54 48.75 49.55 49.06 50.47 50.04 49.97
56.02 56.26 56.32 56.31 56.29 56.10 56.28 57.10 58.23 59.10 59.51 59.55 59.82 59.46 52.80 44.33 43.92 52.39 66.34 61.16 51.11 50.78 48.09 45.92 42.61 40.82 37.91 38.39 40.83 38.42 40.68 43.48 44.45 44.61 44.36 44.94 45.02 45.73 47.04 49.22 48.74 50.77 50.81 50.26 50.31
55.41 55.50 55.61 55.49 55.35 55.61 56.45 57.62 58.60 59.16 59.21 59.26 59.56 58.83 47.46 37.98 49.96 51.12 51.95 50.34 50.71 49.58 47.44 46.64 43.43 43.19 39.16 39.02 37.78 39.54 40.82 41.46 41.77 41.85 42.35 42.13 41.50 43.49 44.65 46.66 47.23 49.51 49.39 49.30 50.16
55.16 55.19 55.14 54.95 55.08 55.63 56.77 57.89 58.81 59.42 59.48 59.42 59.27 57.72 45.97 42.04 50.64 49.13 51.42 48.67 49.60 49.73 47.29 47.33 46.65 42.28 41.02 37.71 42.04 41.19 38.59 39.86 40.96 41.98 40.52 42.24 38.90 40.39 41.89 42.65 42.43 45.93 46.56 48.27 49.23
54.91 54.90 54.66 54.66 54.98 56.06 57.22 57.95 59.24 60.18 59.20 59.55 60.29 52.19 40.40 51.04 50.82 48.98 48.78 48.35 49.81 49.49 49.33 48.44 47.72 44.86 40.87 41.61 40.32 36.88 35.75 33.85 38.67 41.52 41.59 40.80 35.82 40.82 40.84 39.03 39.74 39.83 39.83 45.34 48.46
54.52 54.35 54.34 54.69 55.31 56.39 57.22 58.15 59.93 60.96 61.01 60.80 51.10 46.50 40.76 55.11 47.87 49.48 47.45 47.12 48.04 48.17 48.66 51.09 46.99 41.53 41.41 35.87 33.88 34.43 30.66 31.47 35.84 39.58 40.28 39.39 35.03 40.48 41.31 39.53 39.03 38.06 37.83 37.91 41.11
53.91 53.80 54.09 54.68 55.58 56.56 57.31 58.00 59.53 58.03 57.99 58.52 55.52 41.51 46.99 45.54 49.63 50.23 47.27 48.53 46.64 45.85 44.75 44.45 39.85 36.26 34.77 34.05 29.32 30.91 30.39 30.91 30.57 37.01 38.29 35.51 35.29 39.06 40.43 39.30 37.84 37.51 38.29 39.36 38.31
53.70 53.87 54.29 54.98 55.72 56.54 53.51 49.24 47.95 44.64 48.03 45.61 45.73 44.22 46.87 50.26 49.28 45.88 47.45 46.14 45.22 42.78 36.60 38.56 36.25 31.91 32.82 34.55 35.03 33.65 31.74 30.19 33.39 37.44 34.82 32.98 35.46 38.10 39.21 39.61 38.91 38.99 39.40 40.43 39.88
53.76 54.20 54.54 55.12 55.98 56.05 49.25 45.97 45.30 46.16 41.61 48.89 48.89 47.54 48.93 47.70 43.94 45.63 46.91 41.70 40.80 36.02 37.00 36.09 32.99 37.21 38.58 37.61 36.20 33.80 31.52 30.87 34.65 37.50 35.33 33.39 34.46 36.71 38.18 38.11 37.71 37.89 39.84 40.61 42.33
53.92 54.40 54.82 55.34 55.71 49.04 44.99 44.10 47.38 50.29 40.01 44.71 47.52 46.02 46.48 46.68 42.81 42.82 44.85 41.52 38.19 35.42 34.90 32.66 36.15 40.11 38.88 35.77 34.62 32.09 30.80 30.22 31.57 34.93 34.94 33.21 32.34 34.34 37.77 38.66 41.01 40.57 40.04 41.94 41.64
53.97 54.35 54.86 54.64 48.78 45.30 43.85 46.92 47.74 50.55 35.31 39.98 43.70 45.64 46.53 46.76 42.09 46.49 45.93 42.83 38.93 34.91 35.56 34.49 38.54 38.25 35.92 35.27 35.73 30.41 35.93 36.56 35.06 31.62 27.96 32.14 25.99 30.71 33.38 36.58 38.16 37.81 39.13 40.37 41.28
54.35 54.25 54.58 51.72 44.17 42.82 45.76 46.71 48.06 45.04 27.57 40.89 42.87 48.19 45.12 43.21 42.84 44.44 45.80 43.18 36.75 36.61 36.13 34.13 35.69 35.42 35.21 36.34 37.18 35.28 37.75 34.90 34.35 29.95 28.08 28.32 28.12 28.91 32.04 34.32 35.67 37.45 38.81 39.91 40.58
53.86 54.02 54.39 47.96 43.38 45.90 46.35 49.00 45.79 34.25 26.87 38.22 42.73 42.31 41.00 42.07 41.64 43.75 42.68 44.49 41.55 37.89 36.41 36.78 39.41 37.64 37.00 38.58 38.11 38.73 35.45 34.45 31.61 29.36 24.60 27.22 27.97 27.39 30.03 33.17 35.11 36.60 38.11 38.86 39.06
53.53 53.34 51.11 48.61 41.14 46.04 48.45 44.72 33.48 28.78 38.66 36.93 38.31 41.11 38.69 37.79 39.21 39.60 37.77 37.02 34.62 31.56 30.19 34.61 34.96 37.85 38.87 34.53 36.94 36.02 30.31 25.88 26.00 25.62 25.60 29.22 27.79 27.15 33.04 36.87 37.12 36.45 36.71 37.43 38.15
52.90 50.85 47.83 49.32 45.28 45.26 43.88 35.22 27.27 35.50 34.28 40.71 40.05 39.17 35.38 38.03 36.06 38.48 35.72 33.96 38.26 34.38 29.79 28.66 29.82 34.75 38.13 34.54 32.30 31.93 30.72 26.50 23.87 23.50 25.19 30.04 25.36 29.56 36.04 38.49 38.56 38.36 37.29 37.61 37.67
50.07 42.97 41.72 42.77 43.19 45.96 38.04 30.36 29.34 33.83 37.94 37.15 38.30 33.47 33.75 38.02 36.48 35.84 34.42 34.75 36.86 37.89 30.43 28.67 30.03 36.72 36.98 36.50 35.57 30.90 29.27 31.44 27.41 24.42 23.77 26.40 28.63 35.06 36.86 36.24 36.90 36.55 36.64 36.01 36.70
41.33 39.69 39.86 42.89 43.99 42.24 36.67 33.43 33.80 38.49 39.39 38.94 32.80 35.18 31.80 34.24 34.23 34.08 33.87 37.40 37.26 39.30 37.33 32.54 28.43 33.36 36.98 36.27 36.08 33.14 35.12 29.16 27.67 23.15 21.38 22.88 24.49 27.45 33.23 33.94 35.11 33.95 34.05 35.21 36.21
37.98 35.65 40.62 41.45 43.14 39.59 31.92 31.55 37.01 40.41 40.00 37.26 35.31 34.10 34.38 32.72 32.51 32.84 33.56 36.69 37.95 38.42 38.03 34.07 29.88 31.70 33.60 31.83 30.24 32.65 30.01 30.02 29.31 27.00 24.62 21.90 24.61 31.79 32.30 34.65 32.91 32.83 34.30 34.57 35.05
34.84 33.07 40.90 41.52 36.45 32.56 32.24 35.57 40.24 36.56 37.42 37.63 36.70 35.24 32.56 32.35 32.19 33.58 33.43 33.18 37.22 37.54 32.84 34.35 31.22 27.95 31.57 32.89 34.28 32.58 30.78 30.14 25.58 25.01 24.55 23.95 24.90 32.70 31.47 33.60 34.13 33.40 34.66 34.92 35.67
33.04 32.44 39.41 39.87 30.96 30.68 33.82 34.21 34.65 34.25 33.18 33.78 32.41 33.55 33.30 30.80 28.86 33.80 34.06 37.21 36.76 36.87 33.14 35.46 29.43 24.20 26.43 30.44 33.86 31.15 32.29 31.44 30.96 27.64 24.47 23.00 24.37 32.79 31.33 31.77 33.05 32.58 33.31 34.64 34.85
32.47 29.86 32.78 32.79 29.43 30.17 29.39 29.53 30.93 35.18 32.99 33.39 31.19 32.51 30.62 29.41 31.14 29.17 29.92 34.86 35.66 35.60 40.66 37.95 30.77 28.11 23.44 25.08 28.60 27.13 29.87 30.35 29.56 25.65 25.39 25.54 26.08 27.92 29.81 29.77 30.55 31.37 33.12 34.37 34.84
32.31 28.72 29.95 25.30 28.57 28.47 29.08 29.56 28.90 28.64 32.71 32.56 29.90 29.92 28.44 25.56 26.88 26.63 28.74 29.51 33.52 35.24 31.96 29.21 25.74 25.78 27.83 28.53 28.31 28.61 27.98 27.35 27.33 28.15 25.79 27.63 26.62 27.39 28.04 29.19 29.36 30.21 32.83 33.61 34.39
32.19 29.76 30.09 28.14 28.99 27.61 29.20 26.96 28.26 29.23 29.56 28.50 27.81 29.13 28.75 25.48 25.82 23.73 26.69 25.40 26.12 29.24 27.34 27.79 22.50 23.20 21.64 27.01 26.26 24.39 25.37 26.76 24.44 25.04 24.95 25.44 23.19 28.59 28.86 28.64 28.95 28.67 31.72 31.64 32.68
35.21 34.71 31.78 29.31 26.23 25.74 25.78 27.51 29.34 30.26 31.06 31.91 29.77 27.22 26.53 28.70 30.22 30.89 30.76 30.15 29.06 25.93 25.01 24.43 22.91 20.81 16.32 22.73 22.78 19.63 22.68 23.70 23.82 24.72 24.73 21.41 23.59 27.48 27.81 29.83 29.79 30.97 31.91 31.55 32.30
MSLP
1020.17 1019.96 1019.72 1019.47 1019.09 1018.57 1017.98 1017.45 1017.03 1016.71 1016.39 1016.01 1015.66 1015.34 1015.03 1014.66 1014.04 1013.62 1013.00 1011.99 1011.77 1011.50 1011.29 1011.17 1011.17 1011.41 1011.52 1012.22 1012.69 1013.43 1014.65 1015.09 1014.32 1013.67 1013.06 1012.18 1011.89 1011.75 1011.67 1012.07 1012.60 1013.22 1013.91 1014.58 1015.10
1020.36 1020.00 1019.60 1019.15 1018.65 1018.17 1017.70 1017.23 1016.80 1016.43 1016.11 1015.79 1015.46 1015.20 1014.99 1014.71 1014.37 1013.23 1011.88 1011.64 1011.65 1011.54 1011.46 1011.67 1011.77 1011.80 1012.32 1012.65 1013.11 1013.72 1014.56 1014.30 1013.58 1013.10 1012.76 1012.26 1011.89 1011.76 1011.87 1012.27 1012.75 1013.44 1014.30 1015.06 1015.58
1020.36 1019.94 1019.50 1019.02 1018.52 1018.02 1017.53 1017.06 1016.59 1016.21 1015.89 1015.64 1015.42 1015.18 1014.87 1014.71 1014.18 1012.44 1011.61 1011.62 1011.60 1011.63 1011.67 1011.75 1011.92 1012.16 1012.73 1013.01 1013.41 1013.76 1013.99 1013.67 1013.09 1012.64 1012.45 1012.25 1012.05 1011.89 1012.04 1012.39 1012.71 1013.38 1014.42 1015.36 1015.90
1020.32 1019.84 1019.38 1018.85 1018.31 1017.81 1017.34 1016.83 1016.36 1015.95 1015.64 1015.44 1015.25 1015.04 1014.78 1014.72 1013.76 1011.99 1011.63 1011.62 1011.56 1011.54 1011.61 1011.87 1012.20 1012.75 1013.29 1013.60 1013.66 1013.77 1013.57 1013.40 1012.96 1012.66 1012.50 1012.29 1012.21 1012.22 1012.26 1012.14 1012.38 1012.90 1013.75 1015.01 1015.62
1020.29 1019.79 1019.25 1018.70 1018.11 1017.55 1017.06 1016.58 1016.10 1015.66 1015.38 1015.28 1015.17 1014.99 1014.73 1014.17 1012.77 1011.80 1011.69 1011.64 1011.53 1011.60 1012.05 1012.27 1012.69 1013.14 1013.52 1013.77 1013.77 1013.86 1013.64 1013.37 1012.93 1012.83 1012.65 1012.32 1012.23 1012.55 1012.48 1012.28 1012.69 1013.25 1013.98 1014.57 1015.25
1020.22 1019.71 1019.15 1018.60 1018.01 1017.40 1016.82 1016.27 1015.74 1015.30 1015.04 1014.97 1014.97 1015.00 1014.76 1013.59 1012.19 1011.88 1011.81 1011.77 1011.79 1011.90 1012.29 1012.44 1012.88 1013.16 1013.67 1013.94 1014.16 1014.13 1013.88 1013.51 1013.02 1012.90 1012.73 1012.76 1012.80 1012.86 1013.13 1013.10 1013.31 1013.76 1014.26 1014.64 1014.85
1020.10 1019.53 1018.97 1018.38 1017.72 1017.06 1016.38 1015.76 1015.17 1014.69 1014.53 1014.59 1014.76 1014.84 1014.21 1012.94 1012.27 1012.11 1011.93 1012.06 1012.04 1012.08 1012.38 1012.59 1012.80 1013.23 1013.80 1014.17 1014.26 1014.30 1014.25 1013.66 1013.47 1013.17 1013.00 1012.91 1013.22 1014.02 1014.30 1013.89 1013.89 1014.29 1014.64 1014.91 1014.86
1020.00 1019.39 1018.81 1018.16 1017.41 1016.68 1015.98 1015.34 1014.69 1014.16 1014.21 1014.41 1014.63 1014.76 1013.54 1012.24 1012.19 1012.12 1012.08 1012.09 1012.11 1012.18 1012.41 1012.71 1012.86 1013.49 1014.05 1014.37 1014.65 1014.95 1014.90 1014.74 1014.08 1013.68 1013.49 1013.44 1014.17 1014.81 1014.95 1014.74 1015.21 1015.15 1015.25 1015.10 1014.65
1019.85 1019.28 1018.62 1017.84 1017.04 1016.30 1015.62 1015.04 1014.60 1014.37 1014.35 1014.50 1014.70 1014.48 1013.29 1012.18 1012.32 1012.46 1012.36 1012.36 1012.34 1012.56 1012.83 1012.99 1013.39 1014.50 1014.71 1015.14 1015.61 1015.85 1015.78 1015.51 1014.75 1014.26 1014.12 1014.19 1015.01 1015.47 1015.54 1015.89 1016.08 1016.08 1015.90 1015.46 1014.67
1019.83 1019.12 1018.35 1017.58 1016.71 1016.00 1015.26 1014.79 1014.54 1014.52 1014.57 1014.50 1014.38 1014.42 1013.32 1013.27 1012.94 1012.71 1012.40 1012.42 1012.71 1012.97 1013.52 1013.96 1014.75 1015.27 1015.73 1015.78 1016.20 1016.18 1016.02 1015.77 1015.59 1015.12 1014.80 1015.20 1015.98 1016.36 1016.56 1016.84 1017.13 1016.87 1016.44 1015.96 1015.40
1019.56 1018.82 1018.11 1017.42 1016.55 1015.78 1015.16 1014.90 1015.29 1015.35 1014.86 1015.23 1014.99 1014.53 1013.97 1013.51 1013.18 1012.88 1012.64 1012.72 1013.14 1013.76 1014.52 1014.97 1015.55 1015.68 1015.69 1015.67 1015.72 1015.84 1015.99 1016.08 1015.69 1015.46 1015.64 1016.10 1016.61 1017.11 1017.40 1017.48 1017.69 1017.69 1017.32 1016.80 1016.24
1019.27 1018.60 1017.90 1017.32 1016.68 1015.81 1015.73 1016.72 1017.35 1017.50 1016.36 1015.18 1014.74 1014.33 1013.88 1013.72 1013.45 1013.17 1012.87 1013.32 1013.75 1014.46 1014.86 1015.43 1015.48 1015.16 1015.16 1015.30 1015.53 1015.79 1016.01 1016.05 1015.86 1015.79 1016.03 1016.66 1017.22 1017.73 1018.05 1018.53 1018.89 1018.80 1018.24 1017.72 1016.79
1019.04 1018.37 1017.74 1017.11 1016.53 1016.52 1017.07 1017.62 1017.52 1017.50 1016.71 1015.26 1014.49 1014.11 1013.86 1013.76 1013.76 1013.52 1013.35 1013.72 1014.22 1014.77 1015.18 1015.51 1015.15 1014.85 1014.82 1015.03 1015.32 1015.53 1015.85 1015.98 1016.18 1016.22 1016.51 1017.01 1017.79 1018.26 1018.60 1019.04 1019.19 1019.25 1019.20 1018.54 1018.01
1019.02 1018.30 1017.59 1016.88 1016.90 1017.59 1017.65 1017.68 1017.49 1017.36 1016.96 1015.89 1014.55 1013.98 1013.87 1013.84 1014.01 1013.75 1013.67 1014.02 1014.51 1015.07 1015.39 1015.55 1014.97 1014.78 1014.76 1014.90 1015.15 1015.51 1015.55 1015.92 1016.34 1016.97 1017.46 1017.65 1018.56 1018.90 1019.61 1019.96 1020.18 1020.32 1019.97 1019.57 1018.78
1018.98 1018.41 1017.76 1017.08 1017.70 1017.87 1017.95 1017.56 1017.42 1017.43 1017.14 1016.17 1014.69 1013.87 1014.02 1014.42 1014.57 1014.26 1014.22 1014.25 1014.99 1015.42 1015.87 1015.57 1015.18 1014.91 1014.82 1014.76 1015.02 1015.56 1015.84 1016.48 1016.80 1017.51 1018.03 1018.38 1019.03 1019.35 1019.89 1020.92 1021.38 1021.34 1021.01 1020.53 1019.89
1018.82 1018.31 1017.92 1017.78 1017.86 1017.80 1017.67 1017.48 1017.52 1017.54 1017.25 1016.38 1015.62 1015.30 1015.12 1015.11 1015.15 1015.01 1015.11 1015.29 1015.74 1016.04 1016.24 1016.05 1015.40 1015.19 1014.96 1015.01 1015.25 1015.71 1016.44 1017.32 1017.96 1018.42 1018.96 1018.72 1019.28 1020.31 1020.91 1021.51 1022.15 1022.21 1021.76 1021.30 1020.66
1018.71 1018.21 1017.91 1018.03 1018.33 1017.81 1017.58 1017.66 1018.04 1018.18 1018.33 1018.04 1017.35 1017.00 1016.86 1016.77 1016.53 1016.71 1017.39 1018.03 1018.25 1017.87 1017.88 1016.76 1015.88 1015.40 1015.23 1015.40 1015.68 1016.17 1017.24 1018.11 1018.81 1019.22 1019.52 1019.23 1019.90 1021.21 1021.68 1021.97 1022.39 1022.68 1022.54 1022.07 1021.44
1018.63 1018.33 1018.15 1017.94 1017.98 1017.77 1017.77 1018.12 1018.77 1019.77 1019.49 1019.06 1018.61 1018.20 1018.20 1018.26 1018.24 1018.48 1019.01 1019.97 1019.89 1019.81 1019.57 1018.66 1016.92 1016.00 1015.69 1015.87 1016.27 1016.84 1017.50 1018.46 1019.13 1019.66 1019.77 1019.69 1020.75 1021.69 1022.20 1022.48 1022.72 1022.86 1022.87 1022.53 1022.14
1018.43 1018.49 1018.51 1018.09 1017.77 1017.84 1018.22 1019.54 1021.04 1020.99 1020.66 1020.22 1019.65 1019.55 1019.64 1019.51 1019.55 1019.84 1020.88 1021.60 1021.54 1021.16 1021.03 1020.06 1018.28 1016.78 1016.22 1016.17 1016.58 1017.35 1017.83 1018.43 1019.33 1020.24 1020.44 1020.61 1021.46 1022.02 1022.61 1023.09 1023.36 1023.48 1023.40 1023.22 1022.84
1019.14 1019.06 1018.91 1018.15 1017.95 1018.19 1018.84 1021.41 1021.86 1021.73 1021.55 1020.98 1020.97 1021.10 1021.13 1021.13 1020.96 1021.20 1022.04 1022.68 1022.47 1022.03 1021.72 1021.38 1020.16 1018.02 1017.17 1016.83 1017.17 1017.43 1018.17 1018.91 1019.88 1020.74 1021.15 1021.41 1021.82 1022.29 1023.07 1023.66 1023.94 1024.07 1024.10 1023.96 1023.58
1019.66 1019.27 1018.41 1017.92 1018.12 1019.21 1021.45 1022.44 1022.48 1022.38 1022.00 1022.05 1022.25 1022.37 1022.58 1022.68 1022.50 1022.69 1023.48 1023.61 1023.35 1022.73 1022.26 1022.11 1021.58 1019.63 1018.43 1018.45 1018.63 1018.68 1019.10 1019.83 1020.50 1021.11 1021.66 1022.27 1022.60 1023.02 1023.40 1023.97 1024.51 1024.62 1024.51 1024.33 1024.10
1020.63 1020.16 1018.70 1017.97 1019.48 1021.91 1023.02 1023.03 1023.14 1023.20 1023.05 1022.90 1022.98 1023.38 1023.71 1023.75 1023.79 1023.83 1024.10 1024.16 1023.80 1023.51 1023.38 1023.09 1022.80 1021.98 1020.41 1019.66 1019.70 1019.96 1020.66 1021.36 1021.92 1022.18 1022.46 1022.84 1023.49 1023.90 1024.06 1024.31 1024.56 1024.85 1024.83 1024.59 1024.36
1021.72 1021.48 1019.50 1019.04 1021.74 1023.71 1024.02 1024.25 1024.40 1024.19 1024.47 1024.34 1024.63 1024.63 1024.54 1024.83 1025.09 1024.86 1024.85 1024.81 1024.55 1024.40 1024.41 1023.93 1023.78 1023.06 1021.54 1021.22 1020.95 1021.59 1022.13 1022.38 1022.58 1023.03 1023.13 1023.86 1024.36 1024.51 1024.69 1024.73 1024.95 1024.94 1024.87 1024.77 1024.55
1022.63 1022.94 1022.35 1022.84 1024.56 1024.44 1025.02 1025.42 1025.37 1025.33 1025.70 1025.81 1025.88 1025.59 1025.63 1025.92 1025.92 1026.00 1025.83 1025.57 1025.48 1025.28 1024.79 1024.55 1024.76 1024.58 1024.04 1023.76 1023.79 1023.45 1023.26 1023.42 1023.39 1023.84 1023.63 1023.82 1024.64 1025.09 1025.24 1025.38 1025.32 1025.19 1024.98 1024.76 1024.52
1023.92 1025.72 1025.68 1026.01 1026.17 1026.00 1025.68 1026.30 1026.29 1026.30 1026.35 1026.52 1026.79 1027.08 1027.06 1026.99 1026.92 1027.18 1027.06 1026.79 1026.41 1026.27 1025.92 1026.33 1026.24 1025.95 1025.20 1024.77 1024.63 1024.35 1024.17 1024.30 1024.34 1024.01 1024.21 1023.83 1024.42 1025.01 1025.32 1025.45 1025.50 1025.47 1025.30 1025.11 1024.86
1024.92 1025.72 1026.39 1027.19 1027.16 1026.66 1026.78 1027.49 1027.39 1027.37 1027.29 1027.32 1027.57 1027.77 1027.80 1027.85 1028.20 1028.31 1028.24 1027.89 1027.64 1027.55 1027.51 1027.62 1027.37 1027.26 1026.40 1025.47 1025.40 1025.15 1024.97 1024.78 1024.91 1024.77 1024.63 1024.66 1025.26 1025.49 1025.55 1025.63 1025.80 1025.77 1025.64 1025.51 1025.38
1025.67 1025.89 1026.04 1027.96 1027.76 1027.65 1028.05 1027.93 1027.87 1027.70 1028.07 1027.96 1028.05 1028.06 1028.25 1028.43 1028.34 1028.29 1028.34 1028.19 1028.37 1028.68 1028.73 1028.69 1028.52 1028.26 1027.33 1026.58 1025.98 1025.79 1025.69 1025.64 1025.76 1025.49 1025.33 1025.56 1025.78 1025.63 1025.77 1025.77 1025.77 1025.73 1025.73 1025.86 1025.79
Wind_Speed
18 18 18 18 18 19 20 20 20 19 18 18 17 17 16 17 15 1 2 4 1 7 5 4 5 6 4 3 3 3 5 1 1 2 6 4 3 1 1 5 0 2 1 3 10
18 18 19 20 20 21 21 21 20 19 18 17 16 16 15 15 3 2 7 4 3 7 5 6 5 6 4 3 3 5 4 5 3 2 3 5 4 2 2 2 1 0 4 6 9
19 20 20 21 21 21 22 21 20 18 17 16 15 14 14 9 2 3 3 0 4 6 2 1 2 3 4 3 4 2 4 3 3 3 1 2 4 3 3 2 5 5 5 8 6
20 20 21 22 22 22 23 22 20 18 16 15 13 13 14 1 3 2 1 3 4 2 3 4 5 4 3 3 3 2 2 3 3 2 6 4 3 3 3 6 1 4 7 8 11
21 22 22 22 23 24 23 22 20 18 16 13 11 9 4 1 2 3 1 3 2 3 4 3 5 2 2 2 5 0 3 3 4 7 6 4 5 2 6 6 2 6 8 12 10
21 21 22 22 23 24 23 22 20 18 16 12 8 4 0 2 4 4 3 2 3 3 3 4 2 2 2 2 1 4 5 8 5 4 3 2 2 1 5 8 3 5 9 8 11
21 22 23 24 24 24 23 22 21 18 12 7 4 2 2 2 3 5 3 2 2 2 2 1 3 4 2 3 4 4 7 6 6 6 2 3 1 5 6 8 6 5 6 6 8
22 23 24 25 25 23 23 22 18 8 3 5 5 1 2 2 2 2 3 2 3 2 3 3 3 4 2 1 6 4 5 5 4 8 5 3 5 5 10 9 10 9 7 8 11
23 24 25 25 24 23 22 19 8 5 7 9 3 1 2 5 4 4 2 0 2 2 6 4 5 3 5 4 5 7 1 3 10 5 3 5 3 7 9 10 9 9 9 8 9
24 24 24 24 24 22 21 8 3 2 2 2 2 3 6 3 4 4 2 2 5 3 5 7 6 4 4 5 3 1 2 2 3 6 7 6 4 7 10 9 9 9 10 11 9
24 24 23 22 23 21 9 3 6 5 9 3 1 0 3 7 2 3 2 3 3 9 2 3 6 1 3 3 2 2 1 2 4 3 3 2 5 7 9 11 15 14 14 14 11
25 23 22 21 20 18 3 6 2 2 3 2 3 3 3 2 4 5 2 3 4 1 1 6 1 4 1 3 2 2 1 4 4 3 4 2 4 4 8 6 6 9 14 15 15
24 22 21 19 13 5 5 3 4 2 3 3 1 1 2 3 1 3 3 1 2 1 1 4 3 1 2 2 1 2 4 3 3 4 4 2 4 5 4 6 10 13 8 13 14
24 20 18 19 6 3 3 6 4 3 6 8 5 3 2 1 3 2 3 2 4 1 1 4 3 1 1 1 5 2 4 3 2 4 3 2 3 2 3 9 11 12 13 13 15
23 20 15 10 3 4 4 6 3 2 4 4 5 1 3 4 2 5 4 4 0 2 5 5 2 1 0 2 4 5 2 2 0 3 3 2 4 4 1 8 8 10 12 12 12
23 19 10 3 2 0 5 4 3 6 1 3 4 6 5 5 5 4 6 8 1 1 2 6 3 2 2 2 1 4 4 6 5 3 2 3 4 4 3 2 3 6 10 12 13
22 15 3 1 3 4 3 3 6 5 4 5 4 5 2 5 6 7 5 8 5 5 6 6 1 3 1 2 2 5 6 4 4 4 4 2 5 0 3 5 3 5 8 9 10
19 7 3 1 5 2 3 5 4 0 2 4 4 4 4 7 4 7 4 5 6 6 3 4 5 3 4 2 1 3 4 5 3 2 3 3 2 1 2 5 5 5 5 7 10
10 3 3 6 4 2 5 8 2 2 3 5 5 5 4 5 5 5 5 4 3 6 3 5 5 5 2 1 2 1 1 3 5 3 2 2 3 3 5 6 6 7 7 9 9
2 2 3 9 4 4 8 5 2 3 5 2 2 3 3 7 5 5 4 5 6 4 1 2 6 2 5 1 4 1 3 2 3 2 4 3 3 3 5 5 4 6 7 7 7
4 4 4 7 3 7 6 3 4 3 3 5 3 4 3 4 2 4 4 2 6 7 3 4 2 8 3 5 2 5 3 5 3 4 4 2 4 4 2 5 6 4 5 5 7
2 3 4 3 7 3 3 2 3 6 7 6 4 4 3 4 5 3 3 2 8 2 3 2 2 4 7 2 2 4 4 5 4 3 0 2 3 4 4 4 6 5 5 5 5
3 3 5 3 5 3 3 5 5 7 6 6 5 5 4 4 1 3 4 3 9 7 4 4 2 4 8 5 6 7 4 2 2 2 4 3 2 4 6 6 5 5 5 4 4
4 4 7 7 2 6 4 3 4 5 5 4 4 5 5 5 5 2 5 4 7 6 9 1 1 4 6 3 1 6 5 3 2 1 3 4 6 1 3 5 5 6 5 6 7
5 1 2 3 6 5 5 3 3 5 5 8 5 6 3 3 3 4 5 6 4 11 6 5 1 3 4 5 4 5 3 2 5 5 5 5 8 5 3 4 3 3 6 7 8
4 4 4 3 3 5 6 4 3 2 5 4 5 4 5 4 2 3 4 1 2 6 5 6 2 4 5 4 4 5 4 2 3 3 3 7 4 0 2 3 2 4 6 6 7
2 2 4 4 2 3 1 2 2 2 3 4 2 2 3 1 4 8 7 5 5 2 3 1 1 3 5 5 7 3 2 5 1 3 2 2 2 2 3 4 2 2 6 6 6
Wind_Direction
352 348 344 338 335 334 334 334 332 330 328 327 326 327 329 332 326 95 268 222 181 345 318 318 28 3 46 68 70 114 64 150 214 37 291 317 27 124 358 109 95 111 146 314 124
347 344 341 338 336 334 332 331 329 327 326 325 326 327 329 337 335 301 251 315 329 358 36 36 357 1 32 20 30 81 101 217 221 257 277 314 16 334 49 29 265 178 56 88 125
343 341 338 335 333 331 329 327 324 322 321 321 324 326 328 336 349 322 358 95 34 38 68 56 20 48 42 6 6 140 171 210 268 257 263 301 11 344 97 310 233 230 164 156 155
339 338 335 332 330 328 326 323 320 316 314 317 321 327 325 292 111 307 76 59 20 13 45 36 27 46 63 6 342 7 262 221 282 17 355 325 293 327 193 235 75 225 154 164 176
338 335 333 330 328 326 323 319 315 310 308 308 313 329 340 68 253 333 44 16 24 43 49 60 50 45 29 330 344 89 303 294 286 293 250 315 273 276 284 305 320 112 154 179 193
338 335 332 329 325 323 320 315 310 304 297 296 299 326 311 117 332 360 11 5 36 62 44 60 123 150 88 8 51 309 298 290 306 302 282 224 276 124 0 338 14 152 199 204 205
339 336 333 328 324 322 320 316 312 301 286 271 239 219 88 180 353 327 11 3 11 79 98 120 135 80 125 349 335 334 346 348 14 334 25 166 343 64 318 329 298 259 258 241 239
339 336 332 327 324 323 321 322 320 323 260 181 164 218 182 268 281 16 352 354 27 49 87 113 90 101 67 309 16 35 48 19 321 358 349 91 271 335 348 360 12 354 317 260 242
339 335 331 327 325 324 323 322 323 58 105 131 95 54 86 327 44 317 356 48 357 65 25 77 59 76 30 71 21 9 63 357 327 36 337 50 345 323 0 9 21 2 344 312 291
337 334 332 329 325 325 323 312 307 97 144 219 245 52 356 321 308 337 307 58 76 63 21 40 47 59 34 63 210 262 15 317 263 316 20 20 23 347 353 9 3 357 358 6 356
337 335 332 330 326 326 347 14 20 359 40 76 242 199 307 294 280 1 352 76 47 54 64 7 61 186 245 192 131 125 145 264 264 269 64 44 63 4 346 24 18 9 6 5 357
339 337 333 329 325 322 61 73 130 259 71 177 255 285 241 293 14 344 13 77 67 93 25 19 239 207 203 144 152 169 267 279 285 332 106 149 77 22 21 19 16 360 9 3 1
341 338 334 330 320 27 68 58 327 156 94 343 335 1 314 34 57 320 42 84 82 44 30 162 233 323 175 140 189 243 183 220 218 348 67 108 5 23 32 29 27 22 3 13 9
340 339 338 332 49 318 47 328 323 170 81 323 348 356 7 43 38 336 5 113 30 3 140 231 283 339 112 246 135 280 196 168 154 75 210 59 263 28 29 22 24 8 12 8 5
340 339 341 24 158 49 299 331 314 43 46 336 333 289 342 77 294 358 353 24 27 304 79 264 335 5 12 229 173 217 60 11 330 114 69 306 92 262 299 25 356 1 9 10 7
341 338 339 8 39 299 326 332 48 47 148 9 341 355 30 5 6 330 33 36 46 46 11 248 300 256 247 52 34 109 75 40 46 82 28 255 130 322 0 119 8 357 13 13 6
335 334 350 73 301 332 338 48 41 94 330 336 340 10 334 332 12 27 40 16 33 20 6 333 323 322 34 48 36 73 54 342 355 7 232 298 67 357 21 60 72 39 12 4 12
332 333 328 241 313 337 60 50 82 193 346 341 347 321 71 3 32 15 59 34 23 21 20 28 344 22 343 88 178 47 136 154 272 235 270 348 124 103 84 78 61 46 20 30 31
329 344 12 326 330 90 72 53 114 332 295 336 320 51 13 360 33 66 50 21 2 16 49 12 282 321 49 5 98 143 121 172 102 10 37 161 88 87 106 62 51 40 35 25 25
69 42 306 330 1 57 74 122 120 13 327 336 68 14 48 344 39 38 21 333 341 35 237 345 313 325 295 83 31 97 163 42 17 236 265 301 217 199 160 121 83 50 42 24 17
36 66 260 339 75 47 88 102 94 11 30 35 39 40 42 15 10 36 360 8 359 323 21 359 99 294 347 32 37 356 13 45 124 141 200 176 246 6 252 137 113 67 57 42 29
25 52 315 6 55 43 72 67 23 1 6 32 90 68 54 39 33 62 102 32 336 294 12 359 127 284 250 344 327 57 69 60 96 288 181 175 250 9 52 93 107 73 54 37 37
73 298 325 34 100 72 50 58 58 25 28 15 38 24 12 48 72 60 29 35 9 37 54 325 357 348 348 6 18 45 35 86 189 81 229 164 217 41 49 68 47 67 56 34 18
67 25 346 40 36 100 97 35 87 36 54 56 17 44 35 32 16 54 7 360 348 8 10 199 119 188 209 258 230 306 331 27 149 181 267 234 163 129 47 72 40 29 17 22 20
30 73 184 18 15 64 78 51 67 20 18 26 36 48 10 38 19 30 11 337 9 358 29 63 298 331 293 278 255 251 305 313 228 242 205 194 154 179 163 134 78 37 29 20 6
90 115 36 66 2 47 25 33 58 36 31 16 74 357 13 81 109 301 18 257 275 356 35 358 305 352 280 317 330 276 344 122 18 344 49 87 75 37 65 58 99 50 34 15 356
0 33 94 338 45 67 11 131 69 106 56 53 80 74 56 308 243 229 214 227 246 18 343 351 59 29 272 336 313 285 36 84 67 15 74 89 62 9 38 27 359 351 27 1 344